Regional Weather Roundup
Issued by NWS

Home | Current Version | Previous Version | Text Only | Print | Product List | Glossary Off
Versions: 1 2 3 4 5 6 7 8 9 10 11 12 13 14 15 16 17 18 19 20 21 22 23 24 25 26 27 28 29 30 31 32 33 34 35 36 37 38 39 40 41 42 43 44 45 46 47 48 49 50

000
ASUS43 KBIS 181420
RWRND

NORTH DAKOTA REGIONAL WEATHER ROUNDUP
NATIONAL WEATHER SERVICE BISMARCK ND
900 AM CDT THU SEP 18 2014

NOTE: "FAIR" INDICATES FEW OR NO CLOUDS BELOW 12,000 FEET WITH NO
SIGNIFICANT WEATHER AND/OR OBSTRUCTIONS TO VISIBILITY.


NDZ001>003-009>011-017-181500-
NORTHWEST NORTH DAKOTA

CITY           SKY/WX    TMP DP  RH WIND       PRES   REMARKS
WILLISTON      SUNNY     58  48  69 S7        29.75F
MINOT          SUNNY     50  47  89 E5        29.83F
MINOT AFB      SUNNY     49  49  99 SE10      29.82F
$$

NDZ018>021-031>035-040>046-181500-
SOUTHWEST NORTH DAKOTA

CITY           SKY/WX    TMP DP  RH WIND       PRES   REMARKS
BISMARCK       SUNNY     53  49  86 NE6       29.89F
DICKINSON      SUNNY     55  48  77 S17       29.81S
GARRISON         N/A     56  51  84 SE8       29.85F
HETTINGER ARPT MOSUNNY   54  48  80 SE9       29.86F
$$

NDZ004>008-012>016-024-026-027-054-181500-
NORTHEAST NORTH DAKOTA

CITY           SKY/WX    TMP DP  RH WIND       PRES   REMARKS
GRAND FORKS    FOG       46  45  96 SE14      29.99S VSB 1/4
GRND FRKS AFB  FOG       45  45 100 SE9       29.98F VSB 3/4
DEVILS LAKE    SUNNY     54  45  71 SE10      29.92S
$$

NDZ022-023-025-028>030-036>039-047>053-181500-
SOUTHEAST NORTH DAKOTA

CITY           SKY/WX    TMP DP  RH WIND       PRES   REMARKS
FARGO          CLOUDY    52  50  93 SE12      30.00S
JAMESTOWN      SUNNY     49  47  93 S7        29.95S
$$



USA.gov is the U.S. government's official web portal to all federal, state and local government web resources and services.